Burlington, CO

7:06 AM MDT on August 20, 2017 (GMT -0600)
Kit Carson County

Weather History for KITR - April, 2013

Change the Weather History Date:

Sunday, April 7, 2013

  Actual Average Record
Temperature  
Mean Temperature 55 °F 46 °F  
Max Temperature 70 °F 60 °F 86 °F (1978)
Min Temperature 40 °F 31 °F 14 °F (1938)
Degree Days  
Heating Degree Days 10    
Growing Degree Days 4 (Base 50)    
Moisture  
Dew Point 31 °F    
Average Humidity 45    
Maximum Humidity 79    
Minimum Humidity 18    
Precipitation  
Precipitation 0.00 in 0.03 in 0.35 in (1938)
Month to date precipitation T 0.18  
Year to date precipitation 2.59 1.87  
Sea Level Pressure  
Sea Level Pressure 29.67 in    
Wind  
Wind Speed 10 mph (WSW)    
Max Wind Speed 21 mph    
Max Gust Speed 25 mph    
Visibility 10 miles    
Events      
T = Trace of Precipitation, MM = Missing Value Source: NWS Daily Summary

Daily Weather History Graph

Daily Weather History Graph

Search for Another Location

Airport or City:

Trip Planner

Search our weather history database for the weather conditions in past years. The results will help you decide how hot, cold, wet, or windy it might be!

Date:

Astronomy

Apr. 07, 2013 Rise Set
Actual Time 6:23 AM MDT 7:19 PM MDT
Civil Twilight 5:56 AM MDT 7:46 PM MDT
Nautical Twilight 5:24 AM MDT 8:18 PM MDT
Astronomical Twilight 4:50 AM MDT 8:52 PM MDT
Moon 4:41 AM MDT (4/7) 4:54 PM MDT (4/7)
Length of Visible Light 13h 49m
Length of Day
12h 55m
Waning Crescent, 8% of the Moon is Illuminated
Apr 7
Waning Crescent
Apr 10
New
Apr 18
First Quarter
Apr 25
Full
May 2
Last Quarter

Hourly Weather History & Observations

Time (MDT) Temp. Windchill Dew Point Humidity Pressure Visibility Wind Dir Wind Speed Gust Speed Precip Events Conditions
12:53 AM 55.0 °F - 30.9 °F 40% 29.81 in 10.0 mi South 15.0 mph - N/A   Overcast
1:53 AM 53.1 °F - 36.0 °F 52% 29.78 in 10.0 mi SSE 12.7 mph - N/A   Overcast
2:53 AM 45.0 °F 40.6 °F 35.1 °F 68% 29.75 in 10.0 mi SE 8.1 mph - N/A   Clear
3:53 AM 45.0 °F 40.6 °F 35.1 °F 68% 29.72 in 10.0 mi SE 8.1 mph - N/A   Partly Cloudy
4:53 AM 45.0 °F 39.7 °F 36.0 °F 71% 29.72 in 10.0 mi SSE 10.4 mph - N/A   Overcast
5:53 AM 39.9 °F 35.1 °F 34.0 °F 79% 29.72 in 10.0 mi South 6.9 mph - N/A   Clear
6:53 AM 42.1 °F 37.1 °F 36.0 °F 79% 29.72 in 10.0 mi SSE 8.1 mph - N/A   Clear
7:53 AM 48.0 °F - 37.0 °F 66% 29.74 in 10.0 mi West 6.9 mph - N/A   Clear
8:53 AM 52.0 °F - 37.0 °F 57% 29.73 in 10.0 mi WNW 9.2 mph - N/A   Clear
9:53 AM 60.1 °F - 36.0 °F 41% 29.70 in 10.0 mi WNW 15.0 mph 21.9 mph N/A   Clear
10:53 AM 64.9 °F - 32.0 °F 29% 29.67 in 10.0 mi NW 16.1 mph 24.2 mph N/A   Clear
11:53 AM 66.9 °F - 26.1 °F 21% 29.64 in 10.0 mi NNW 15.0 mph 20.7 mph N/A   Clear
12:53 PM 68.0 °F - 26.1 °F 21% 29.62 in 10.0 mi NW 11.5 mph 23.0 mph N/A   Clear
1:53 PM 69.1 °F - 25.0 °F 19% 29.61 in 10.0 mi NW 20.7 mph 25.3 mph N/A   Clear
2:53 PM 70.0 °F - 25.0 °F 18% 29.61 in 10.0 mi North 8.1 mph - N/A   Scattered Clouds
3:53 PM 66.9 °F - 23.0 °F 19% 29.60 in 10.0 mi WNW 12.7 mph - N/A   Scattered Clouds
4:53 PM 63.0 °F - 27.0 °F 26% 29.63 in 10.0 mi Variable 3.5 mph 25.3 mph N/A   Mostly Cloudy
5:53 PM 63.0 °F - 28.9 °F 28% 29.63 in 10.0 mi NNW 6.9 mph - N/A   Clear
6:53 PM 61.0 °F - 28.0 °F 29% 29.62 in 10.0 mi North 5.8 mph - N/A   Clear
7:53 PM 50.0 °F - 27.0 °F 41% 29.63 in 10.0 mi South 3.5 mph - N/A   Clear
8:53 PM 46.9 °F - 28.0 °F 48% 29.64 in 10.0 mi Calm Calm - N/A   Clear
9:53 PM 43.0 °F 40.3 °F 28.0 °F 56% 29.63 in 10.0 mi WSW 4.6 mph - N/A   Clear
10:53 PM 45.0 °F 43.5 °F 28.9 °F 53% 29.62 in 10.0 mi SW 3.5 mph - N/A   Clear
11:53 PM 46.9 °F - 30.9 °F 54% 29.61 in 10.0 mi SSW 10.4 mph - N/A   Clear